EW6135 Weather Reports


Display with metric or nautical units.
time (UTC)temp
F
wind
direction
speed
MPH
gust
MPH
rain 1hr
in
rain 24hr
in
rain mn
in
humidity
%
barometer
mb
20200406094555 43 88 0.0 0.0 0.00 0.00 0.00 91 1018.1
20200406093145 43 88 0.0 0.0 0.00 0.00 0.00 91 1018.1
20200406090059 44 88 0.0 0.0 0.00 0.00 0.00 90 1017.9
20200406084553 43 88 0.0 0.0 0.00 0.00 0.00 90 1018.1
20200406083134 44 88 0.0 0.0 0.00 0.00 0.00 90 1018.1
20200406080216 44 88 0.0 0.0 0.00 0.00 0.00 90 1018.2
20200406074629 44 88 0.0 0.0 0.00 0.00 0.00 90 1018.3
20200406073157 44 88 0.0 0.0 0.00 0.00 0.00 90 1018.2
20200406070101 45 88 0.0 0.0 0.00 0.00 0.00 90 1018.4
20200406064631 45 88 0.0 0.0 0.00 0.00 0.00 90 1018.4
20200406063056 45 88 0.0 0.0 0.00 0.00 0.00 90 1018.5
20200406060110 45 88 0.0 0.0 0.00 0.00 0.00 90 1018.5
20200406054551 45 88 0.0 0.0 0.00 0.00 0.00 90 1018.6
20200406053135 45 88 0.0 0.0 0.00 0.00 0.00 90 1018.5
20200406050212 46 88 0.0 0.0 0.00 0.00 0.00 90 1018.8
20200406044606 46 88 0.0 0.0 0.00 0.00 0.00 90 1019.1
20200406043032 47 88 0.0 0.0 0.00 0.00 0.00 90 1019.1
20200406040026 47 88 0.0 0.0 0.00 0.00 0.00 90 1018.9
20200406034627 47 88 0.0 0.0 0.00 0.00 0.00 90 1018.9
20200406033030 47 88 0.0 0.0 0.00 0.00 0.00 90 1018.9
20200406030045 48 88 0.0 0.0 0.00 0.00 0.00 90 1018.8
20200406024618 48 88 0.0 0.0 0.00 0.00 0.00 90 1018.8
20200406023029 48 88 0.0 0.0 0.00 0.00 0.00 90 1018.8
20200406020028 49 88 0.0 0.0 0.00 0.00 0.00 89 1019.0
20200406014529 50 88 0.0 0.0 0.00 0.00 0.00 89 1018.9
20200406013047 50 88 0.0 0.0 0.00 0.00 0.00 89 1018.9
20200406010037 51 88 0.0 0.0 0.00 0.00 0.00 87 1018.7
20200406004555 53 88 0.0 0.0 0.00 0.00 0.00 86 1018.6
20200406003024 54 88 0.0 0.0 0.00 0.00 0.00 83 1018.4
20200406000033 58 87 0.0 1.0 0.00 0.00 0.00 76 1018.2
20200405234535 59 91 0.0 2.0 0.00 0.00 0.00 72 1018.2
20200405233128 60 134 0.0 3.0 0.00 0.00 0.00 69 1018.0
20200405230050 63 96 0.0 3.0 0.00 0.00 0.00 62 1017.8
20200405224523 64 102 1.0 4.0 0.00 0.00 0.00 60 1017.7
20200405223106 65 118 1.0 6.0 0.00 0.00 0.00 59 1017.7
20200405220113 67 130 0.0 5.0 0.00 0.00 0.00 50 1017.6
20200405214541 68 311 0.0 4.0 0.00 0.00 0.00 48 1017.5
20200405213050 68 213 0.0 2.0 0.00 0.00 0.00 49 1017.5
20200405210035 68 75 1.0 5.0 0.00 0.00 0.00 47 1017.4
20200405204528 68 96 2.0 7.0 0.00 0.00 0.00 48 1017.4
20200405203111 69 342 0.0 6.0 0.00 0.00 0.00 49 1017.4
20200405200023 68 116 4.0 9.0 0.00 0.00 0.00 48 1017.7
20200405194533 68 146 0.0 4.0 0.00 0.00 0.00 49 1017.8
20200405193020 67 123 1.0 5.0 0.00 0.00 0.00 47 1017.8
20200405190035 68 32 1.0 4.0 0.00 0.00 0.00 50 1018.1
20200405184506 67 358 1.0 6.0 0.00 0.00 0.00 51 1018.3
20200405183006 67 96 1.0 5.0 0.00 0.00 0.00 54 1018.3
20200405180001 67 306 1.0 6.0 0.00 0.00 0.00 54 1018.7
20200405174637 67 332 3.0 9.0 0.00 0.00 0.00 52 1018.7
20200405173322 67 302 1.0 8.0 0.00 0.00 0.00 52 1018.9
20200405171559 67 17 1.0 7.0 0.00 0.00 0.00 58 1019.0
20200405170119 66 98 2.0 5.0 0.00 0.00 0.00 58 1019.1
20200405163101 64 109 1.0 6.0 0.00 0.00 0.00 63 1019.3
20200405161550 63 61 2.0 7.0 0.00 0.00 0.00 67 1019.4
20200405160113 63 105 3.0 6.0 0.00 0.00 0.00 69 1019.5
20200405153101 61 98 1.0 6.0 0.00 0.00 0.00 72 1019.7
20200405151546 61 88 2.0 6.0 0.00 0.00 0.00 70 1019.9
20200405150142 61 102 0.0 5.0 0.00 0.00 0.00 72 1019.9
20200405143113 59 56 0.0 4.0 0.00 0.00 0.00 74 1019.7
20200405141622 58 76 0.0 4.0 0.00 0.00 0.00 76 1019.7
20200405140115 57 284 1.0 6.0 0.00 0.00 0.00 76 1019.5
20200405133041 55 304 1.0 5.0 0.00 0.00 0.00 82 1019.2
20200405131523 54 224 0.0 5.0 0.00 0.00 0.00 84 1019.2
20200405130050 54 263 0.0 3.0 0.00 0.00 0.00 85 1019.1
20200405123051 52 79 0.0 4.0 0.00 0.00 0.00 88 1018.7
20200405121510 50 14 1.0 4.0 0.00 0.00 0.00 90 1018.5
20200405120014 48 344 0.0 2.0 0.00 0.00 0.00 90 1018.4
20200405113133 45 283 0.0 1.0 0.00 0.00 0.00 90 1018.2
20200405111610 44 352 0.0 0.0 0.00 0.00 0.00 90 1018.1
20200405110122 43 316 0.0 1.0 0.00 0.00 0.00 90 1017.8
20200405103144 43 264 0.0 1.0 0.00 0.00 0.00 90 1017.8
20200405101722 44 264 0.0 1.0 0.00 0.00 0.00 90 1017.7
20200405100141 44 264 0.0 0.0 0.00 0.00 0.00 90 1017.6